This is the latest recevied weather packets stored in our database for station/object KJ5IIV. If no packets are shown the sender has not sent any weather packets the latest 10 day(s).
| Time | Temp. | Humidity | Pressure | Rain* | Wind** | Luminosity | Snow |
|---|---|---|---|---|---|---|---|
| 1777428293 | 24.44° C | 87% | 1008.9 hPa | 0 mm | - | 0 W/m² | - |
| 1777427988 | 24.44° C | 86% | 1008.8 hPa | 0 mm | - | 0 W/m² | - |
| 1777427684 | 25° C | 86% | 1009.3 hPa | 0 mm | - | 0 W/m² | - |
| 1777427382 | 25° C | 85% | 1009.3 hPa | 0 mm | - | 0 W/m² | - |
| 1777427078 | 25° C | 85% | 1009.4 hPa | 0 mm | - | 0 W/m² | - |
| 1777426776 | 24.44° C | 86% | 1009.1 hPa | 0 mm | - | 0 W/m² | - |
| 1777426473 | 24.44° C | 86% | 1008.6 hPa | 0 mm | - | 0 W/m² | - |
| 1777426173 | 24.44° C | 87% | 1008.9 hPa | 0 mm | - | 0 W/m² | - |
| 1777425869 | 24.44° C | 87% | 1008.9 hPa | 0 mm | - | 0 W/m² | - |
| 1777425565 | 24.44° C | 87% | 1008.1 hPa | 0 mm | - | 0 W/m² | - |
| 1777425265 | 24.44° C | 87% | 1008.8 hPa | 0 mm | - | 0 W/m² | - |
| 1777424962 | 24.44° C | 87% | 1008.4 hPa | 0 mm | - | 1 W/m² | - |
| 1777424658 | 24.44° C | 87% | 1008.8 hPa | 0 mm | - | 4 W/m² | - |
| 1777424353 | 24.44° C | 87% | 1008.4 hPa | 0 mm | - | 9 W/m² | - |
| 1777424049 | 24.44° C | 87% | 1009 hPa | 0 mm | - | 11 W/m² | - |
| 1777423746 | 24.44° C | 87% | 1009.4 hPa | 0 mm | - | 12 W/m² | - |
| 1777423442 | 24.44° C | 87% | 1009.3 hPa | 0 mm | - | 16 W/m² | - |
| 1777423137 | 24.44° C | 87% | 1009 hPa | 0 mm | - | 14 W/m² | - |
| 1777422832 | 24.44° C | 87% | 1009.5 hPa | 0 mm | - | 10 W/m² | - |
| 1777422527 | 24.44° C | 87% | 1009.4 hPa | 0 mm | - | 10 W/m² | - |
| 1777422223 | 24.44° C | 87% | 1010.2 hPa | 0 mm | - | 8 W/m² | - |
| 1777421923 | 24.44° C | 88% | 1010.8 hPa | 0 mm | - | 6 W/m² | - |
| 1777421618 | 24.44° C | 89% | 1010.6 hPa | 0 mm | - | 5 W/m² | - |
| 1777421313 | 24.44° C | 90% | 1010.6 hPa | 0 mm | - | 5 W/m² | - |
| 1777421011 | 24.44° C | 89% | 1010.3 hPa | 0 mm | - | 6 W/m² | - |
* Rain latest hour (hover to see other rain measurements)
** Current wind speed in m/s (hover to see current wind gust speed)